﻿測定場所 (Monitoring sites),日付 (Measurement date),時間 (Measurement time),線量率 最大値 (max) μGy/h,線量率 最小値 (min) μGy/h,線量率 平均値 (average) μGy/h,
新宿 (Shinjuku),2021-10-31,23:01～24:00,0.0391,0.0350,0.0368,
新宿 (Shinjuku),2021-10-31,22:01～23:00,0.0404,0.0342,0.0367,
新宿 (Shinjuku),2021-10-31,21:01～22:00,0.0388,0.0347,0.0366,
新宿 (Shinjuku),2021-10-31,20:01～21:00,0.0410,0.0352,0.0368,
新宿 (Shinjuku),2021-10-31,19:01～20:00,0.0425,0.0343,0.0379,
新宿 (Shinjuku),2021-10-31,18:01～19:00,0.0431,0.0364,0.0398,
新宿 (Shinjuku),2021-10-31,17:01～18:00,0.0442,0.0360,0.0395,
新宿 (Shinjuku),2021-10-31,16:01～17:00,0.0427,0.0351,0.0383,
新宿 (Shinjuku),2021-10-31,15:01～16:00,0.0438,0.0363,0.0400,
新宿 (Shinjuku),2021-10-31,14:01～15:00,0.0439,0.0379,0.0408,
新宿 (Shinjuku),2021-10-31,13:01～14:00,0.0478,0.0383,0.0424,
新宿 (Shinjuku),2021-10-31,12:01～13:00,0.0452,0.0364,0.0411,
新宿 (Shinjuku),2021-10-31,11:01～12:00,0.0417,0.0343,0.0373,
新宿 (Shinjuku),2021-10-31,10:01～11:00,0.0400,0.0349,0.0371,
新宿 (Shinjuku),2021-10-31,09:01～10:00,0.0402,0.0347,0.0375,
新宿 (Shinjuku),2021-10-31,08:01～09:00,0.0415,0.0345,0.0371,
新宿 (Shinjuku),2021-10-31,07:01～08:00,0.0399,0.0348,0.0371,
新宿 (Shinjuku),2021-10-31,06:01～07:00,0.0407,0.0346,0.0371,
新宿 (Shinjuku),2021-10-31,05:01～06:00,0.0399,0.0347,0.0370,
新宿 (Shinjuku),2021-10-31,04:01～05:00,0.0404,0.0347,0.0372,
新宿 (Shinjuku),2021-10-31,03:01～04:00,0.0397,0.0348,0.0368,
新宿 (Shinjuku),2021-10-31,02:01～03:00,0.0413,0.0340,0.0371,
新宿 (Shinjuku),2021-10-31,01:01～02:00,0.0406,0.0344,0.0367,
新宿 (Shinjuku),2021-10-31,00:01～01:00,0.0417,0.0346,0.0368,
新宿 (Shinjuku),2021-10-30,23:01～24:00,0.0395,0.0348,0.0368,
新宿 (Shinjuku),2021-10-30,22:01～23:00,0.0401,0.0347,0.0370,
新宿 (Shinjuku),2021-10-30,21:01～22:00,0.0399,0.0343,0.0363,
新宿 (Shinjuku),2021-10-30,20:01～21:00,0.0378,0.0342,0.0362,
新宿 (Shinjuku),2021-10-30,19:01～20:00,0.0397,0.0342,0.0364,
新宿 (Shinjuku),2021-10-30,18:01～19:00,0.0387,0.0342,0.0364,
新宿 (Shinjuku),2021-10-30,17:01～18:00,0.0399,0.0343,0.0365,
新宿 (Shinjuku),2021-10-30,16:01～17:00,0.0392,0.0345,0.0364,
新宿 (Shinjuku),2021-10-30,15:01～16:00,0.0413,0.0341,0.0366,
新宿 (Shinjuku),2021-10-30,14:01～15:00,0.0388,0.0349,0.0365,
新宿 (Shinjuku),2021-10-30,13:01～14:00,0.0395,0.0352,0.0367,
新宿 (Shinjuku),2021-10-30,12:01～13:00,0.0395,0.0339,0.0367,
新宿 (Shinjuku),2021-10-30,11:01～12:00,0.0405,0.0341,0.0367,
新宿 (Shinjuku),2021-10-30,10:01～11:00,0.0408,0.0344,0.0371,
新宿 (Shinjuku),2021-10-30,09:01～10:00,0.0410,0.0342,0.0370,
新宿 (Shinjuku),2021-10-30,08:01～09:00,0.0409,0.0342,0.0371,
新宿 (Shinjuku),2021-10-30,07:01～08:00,0.0416,0.0353,0.0372,
新宿 (Shinjuku),2021-10-30,06:01～07:00,0.0414,0.0344,0.0372,
新宿 (Shinjuku),2021-10-30,05:01～06:00,0.0403,0.0351,0.0369,
新宿 (Shinjuku),2021-10-30,04:01～05:00,0.0395,0.0342,0.0367,
新宿 (Shinjuku),2021-10-30,03:01～04:00,0.0400,0.0339,0.0367,
新宿 (Shinjuku),2021-10-30,02:01～03:00,0.0389,0.0344,0.0367,
新宿 (Shinjuku),2021-10-30,01:01～02:00,0.0410,0.0346,0.0366,
新宿 (Shinjuku),2021-10-30,00:01～01:00,0.0390,0.0334,0.0364,
新宿 (Shinjuku),2021-10-29,23:01～24:00,0.0397,0.0334,0.0363,
新宿 (Shinjuku),2021-10-29,22:01～23:00,0.0390,0.0342,0.0364,
新宿 (Shinjuku),2021-10-29,21:01～22:00,0.0401,0.0343,0.0365,
新宿 (Shinjuku),2021-10-29,20:01～21:00,0.0384,0.0341,0.0362,
新宿 (Shinjuku),2021-10-29,19:01～20:00,0.0388,0.0340,0.0364,
新宿 (Shinjuku),2021-10-29,18:01～19:00,0.0401,0.0342,0.0365,
新宿 (Shinjuku),2021-10-29,17:01～18:00,0.0388,0.0347,0.0367,
新宿 (Shinjuku),2021-10-29,16:01～17:00,0.0398,0.0335,0.0365,
新宿 (Shinjuku),2021-10-29,15:01～16:00,0.0403,0.0344,0.0367,
新宿 (Shinjuku),2021-10-29,14:01～15:00,0.0395,0.0343,0.0364,
新宿 (Shinjuku),2021-10-29,13:01～14:00,0.0403,0.0354,0.0367,
新宿 (Shinjuku),2021-10-29,12:01～13:00,0.0401,0.0354,0.0368,
新宿 (Shinjuku),2021-10-29,11:01～12:00,0.0402,0.0338,0.0366,
新宿 (Shinjuku),2021-10-29,10:01～11:00,0.0389,0.0347,0.0368,
新宿 (Shinjuku),2021-10-29,09:01～10:00,0.0405,0.0343,0.0366,
新宿 (Shinjuku),2021-10-29,08:01～09:00,0.0394,0.0332,0.0363,
新宿 (Shinjuku),2021-10-29,07:01～08:00,0.0407,0.0341,0.0361,
新宿 (Shinjuku),2021-10-29,06:01～07:00,0.0403,0.0347,0.0367,
新宿 (Shinjuku),2021-10-29,05:01～06:00,0.0383,0.0343,0.0366,
新宿 (Shinjuku),2021-10-29,04:01～05:00,0.0398,0.0347,0.0366,
新宿 (Shinjuku),2021-10-29,03:01～04:00,0.0396,0.0350,0.0366,
新宿 (Shinjuku),2021-10-29,02:01～03:00,0.0390,0.0343,0.0364,
新宿 (Shinjuku),2021-10-29,01:01～02:00,0.0406,0.0344,0.0368,
新宿 (Shinjuku),2021-10-29,00:01～01:00,0.0403,0.0347,0.0365,
新宿 (Shinjuku),2021-10-28,23:01～24:00,0.0384,0.0346,0.0362,
新宿 (Shinjuku),2021-10-28,22:01～23:00,0.0388,0.0337,0.0363,
新宿 (Shinjuku),2021-10-28,21:01～22:00,0.0402,0.0344,0.0364,
新宿 (Shinjuku),2021-10-28,20:01～21:00,0.0386,0.0348,0.0363,
新宿 (Shinjuku),2021-10-28,19:01～20:00,0.0390,0.0345,0.0365,
新宿 (Shinjuku),2021-10-28,18:01～19:00,0.0388,0.0343,0.0362,
新宿 (Shinjuku),2021-10-28,17:01～18:00,0.0401,0.0340,0.0362,
新宿 (Shinjuku),2021-10-28,16:01～17:00,0.0383,0.0348,0.0363,
新宿 (Shinjuku),2021-10-28,15:01～16:00,0.0387,0.0340,0.0366,
新宿 (Shinjuku),2021-10-28,14:01～15:00,0.0387,0.0346,0.0363,
新宿 (Shinjuku),2021-10-28,13:01～14:00,0.0397,0.0342,0.0366,
新宿 (Shinjuku),2021-10-28,12:01～13:00,0.0396,0.0340,0.0365,
新宿 (Shinjuku),2021-10-28,11:01～12:00,0.0395,0.0347,0.0366,
新宿 (Shinjuku),2021-10-28,10:01～11:00,0.0393,0.0347,0.0362,
新宿 (Shinjuku),2021-10-28,09:01～10:00,0.0391,0.0342,0.0364,
新宿 (Shinjuku),2021-10-28,08:01～09:00,0.0384,0.0341,0.0364,
新宿 (Shinjuku),2021-10-28,07:01～08:00,0.0385,0.0345,0.0364,
新宿 (Shinjuku),2021-10-28,06:01～07:00,0.0393,0.0337,0.0364,
新宿 (Shinjuku),2021-10-28,05:01～06:00,0.0396,0.0340,0.0365,
新宿 (Shinjuku),2021-10-28,04:01～05:00,0.0394,0.0337,0.0363,
新宿 (Shinjuku),2021-10-28,03:01～04:00,0.0387,0.0334,0.0358,
新宿 (Shinjuku),2021-10-28,02:01～03:00,0.0404,0.0341,0.0359,
新宿 (Shinjuku),2021-10-28,01:01～02:00,0.0386,0.0346,0.0364,
新宿 (Shinjuku),2021-10-28,00:01～01:00,0.0380,0.0336,0.0361,
新宿 (Shinjuku),2021-10-27,23:01～24:00,0.0392,0.0333,0.0360,
新宿 (Shinjuku),2021-10-27,22:01～23:00,0.0371,0.0323,0.0357,
新宿 (Shinjuku),2021-10-27,21:01～22:00,0.0390,0.0343,0.0360,
新宿 (Shinjuku),2021-10-27,20:01～21:00,0.0388,0.0331,0.0359,
新宿 (Shinjuku),2021-10-27,19:01～20:00,0.0390,0.0337,0.0359,
新宿 (Shinjuku),2021-10-27,18:01～19:00,0.0382,0.0339,0.0361,
新宿 (Shinjuku),2021-10-27,17:01～18:00,0.0397,0.0336,0.0359,
新宿 (Shinjuku),2021-10-27,16:01～17:00,0.0383,0.0332,0.0357,
新宿 (Shinjuku),2021-10-27,15:01～16:00,0.0386,0.0334,0.0361,
新宿 (Shinjuku),2021-10-27,14:01～15:00,0.0389,0.0340,0.0363,
新宿 (Shinjuku),2021-10-27,13:01～14:00,0.0407,0.0343,0.0372,
新宿 (Shinjuku),2021-10-27,12:01～13:00,0.0424,0.0367,0.0391,
新宿 (Shinjuku),2021-10-27,11:01～12:00,0.0391,0.0345,0.0368,
新宿 (Shinjuku),2021-10-27,10:01～11:00,0.0402,0.0349,0.0368,
新宿 (Shinjuku),2021-10-27,09:01～10:00,0.0389,0.0335,0.0366,
新宿 (Shinjuku),2021-10-27,08:01～09:00,0.0399,0.0344,0.0364,
新宿 (Shinjuku),2021-10-27,07:01～08:00,0.0391,0.0341,0.0362,
新宿 (Shinjuku),2021-10-27,06:01～07:00,0.0401,0.0342,0.0365,
新宿 (Shinjuku),2021-10-27,05:01～06:00,0.0400,0.0344,0.0361,
新宿 (Shinjuku),2021-10-27,04:01～05:00,0.0392,0.0334,0.0363,
新宿 (Shinjuku),2021-10-27,03:01～04:00,0.0377,0.0344,0.0360,
新宿 (Shinjuku),2021-10-27,02:01～03:00,0.0383,0.0340,0.0359,
新宿 (Shinjuku),2021-10-27,01:01～02:00,0.0383,0.0333,0.0358,
新宿 (Shinjuku),2021-10-27,00:01～01:00,0.0382,0.0338,0.0358,
新宿 (Shinjuku),2021-10-26,23:01～24:00,0.0383,0.0346,0.0360,
新宿 (Shinjuku),2021-10-26,22:01～23:00,0.0383,0.0335,0.0358,
新宿 (Shinjuku),2021-10-26,21:01～22:00,0.0402,0.0328,0.0359,
新宿 (Shinjuku),2021-10-26,20:01～21:00,0.0402,0.0339,0.0360,
新宿 (Shinjuku),2021-10-26,19:01～20:00,0.0376,0.0329,0.0357,
新宿 (Shinjuku),2021-10-26,18:01～19:00,0.0391,0.0331,0.0358,
新宿 (Shinjuku),2021-10-26,17:01～18:00,0.0383,0.0341,0.0360,
新宿 (Shinjuku),2021-10-26,16:01～17:00,0.0386,0.0337,0.0360,
新宿 (Shinjuku),2021-10-26,15:01～16:00,0.0391,0.0339,0.0358,
新宿 (Shinjuku),2021-10-26,14:01～15:00,0.0372,0.0325,0.0356,
新宿 (Shinjuku),2021-10-26,13:01～14:00,0.0393,0.0334,0.0360,
新宿 (Shinjuku),2021-10-26,12:01～13:00,0.0385,0.0339,0.0358,
新宿 (Shinjuku),2021-10-26,11:01～12:00,0.0378,0.0342,0.0359,
新宿 (Shinjuku),2021-10-26,10:01～11:00,0.0398,0.0334,0.0361,
新宿 (Shinjuku),2021-10-26,09:01～10:00,0.0399,0.0345,0.0365,
新宿 (Shinjuku),2021-10-26,08:01～09:00,0.0417,0.0360,0.0379,
新宿 (Shinjuku),2021-10-26,07:01～08:00,0.0409,0.0353,0.0378,
新宿 (Shinjuku),2021-10-26,06:01～07:00,0.0450,0.0382,0.0413,
新宿 (Shinjuku),2021-10-26,05:01～06:00,0.0451,0.0385,0.0413,
新宿 (Shinjuku),2021-10-26,04:01～05:00,0.0502,0.0404,0.0454,
新宿 (Shinjuku),2021-10-26,03:01～04:00,0.0535,0.0449,0.0489,
新宿 (Shinjuku),2021-10-26,02:01～03:00,0.0552,0.0456,0.0500,
新宿 (Shinjuku),2021-10-26,01:01～02:00,0.0523,0.0415,0.0467,
新宿 (Shinjuku),2021-10-26,00:01～01:00,0.0465,0.0408,0.0441,
新宿 (Shinjuku),2021-10-25,23:01～24:00,0.0479,0.0412,0.0444,
新宿 (Shinjuku),2021-10-25,22:01～23:00,0.0460,0.0388,0.0418,
新宿 (Shinjuku),2021-10-25,21:01～22:00,0.0456,0.0363,0.0395,
新宿 (Shinjuku),2021-10-25,20:01～21:00,0.0378,0.0351,0.0363,
新宿 (Shinjuku),2021-10-25,19:01～20:00,0.0395,0.0348,0.0369,
新宿 (Shinjuku),2021-10-25,18:01～19:00,0.0409,0.0346,0.0367,
新宿 (Shinjuku),2021-10-25,17:01～18:00,0.0398,0.0348,0.0368,
新宿 (Shinjuku),2021-10-25,16:01～17:00,0.0407,0.0343,0.0367,
新宿 (Shinjuku),2021-10-25,15:01～16:00,0.0397,0.0352,0.0365,
新宿 (Shinjuku),2021-10-25,14:01～15:00,0.0402,0.0346,0.0367,
新宿 (Shinjuku),2021-10-25,13:01～14:00,0.0394,0.0342,0.0364,
新宿 (Shinjuku),2021-10-25,12:01～13:00,0.0405,0.0344,0.0367,
新宿 (Shinjuku),2021-10-25,11:01～12:00,0.0405,0.0341,0.0367,
新宿 (Shinjuku),2021-10-25,10:01～11:00,0.0395,0.0347,0.0364,
新宿 (Shinjuku),2021-10-25,09:01～10:00,0.0406,0.0345,0.0369,
新宿 (Shinjuku),2021-10-25,08:01～09:00,0.0399,0.0344,0.0368,
新宿 (Shinjuku),2021-10-25,07:01～08:00,0.0400,0.0346,0.0370,
新宿 (Shinjuku),2021-10-25,06:01～07:00,0.0407,0.0345,0.0367,
新宿 (Shinjuku),2021-10-25,05:01～06:00,0.0401,0.0351,0.0369,
新宿 (Shinjuku),2021-10-25,04:01～05:00,0.0396,0.0353,0.0367,
新宿 (Shinjuku),2021-10-25,03:01～04:00,0.0399,0.0352,0.0369,
新宿 (Shinjuku),2021-10-25,02:01～03:00,0.0414,0.0346,0.0371,
新宿 (Shinjuku),2021-10-25,01:01～02:00,0.0394,0.0349,0.0370,
新宿 (Shinjuku),2021-10-25,00:01～01:00,0.0404,0.0341,0.0365,
